Fitchburg, MA

9:39 PM EDT on July 25, 2017 (GMT -0400)
Fitchburg Municipal

Weather History for KFIT - August, 2012

Change the Weather History Date:

Tuesday, August 21, 2012

  Actual Average (KORH) Record (KORH)
Temperature  
Mean Temperature 72 °F -  
Max Temperature 82 °F 74 °F 92 °F (1937)
Min Temperature 63 °F 56 °F 43 °F (1941)
Cooling Degree Days 8    
Growing Degree Days 22 (Base 50)    
Moisture  
Dew Point 56 °F    
Average Humidity 59    
Maximum Humidity 81    
Minimum Humidity 35    
Precipitation  
Precipitation 0.00 in - - ()
Sea Level Pressure  
Sea Level Pressure 30.00 in    
Wind  
Wind Speed 4 mph (WNW)    
Max Wind Speed 10 mph    
Max Gust Speed 16 mph    
Visibility 10 miles    
Events      
Averages and records for this station are not official NWS values.
T = Trace of Precipitation, MM = Missing Value Source: NWS Daily Summary

Daily Weather History Graph

Daily Weather History Graph

Search for Another Location

Airport or City:

Trip Planner

Search our weather history database for the weather conditions in past years. The results will help you decide how hot, cold, wet, or windy it might be!

Date:

Astronomy

Aug. 21, 2012 Rise Set
Actual Time 6:00 AM EDT 7:38 PM EDT
Civil Twilight 5:30 AM EDT 8:08 PM EDT
Nautical Twilight 4:54 AM EDT 8:44 PM EDT
Astronomical Twilight 4:16 AM EDT 9:22 PM EDT
Moon 10:35 AM EDT (8/21) 9:28 PM EDT (8/21)
Length of Visible Light 14h 37m
Length of Day
13h 37m
Waxing Crescent, 19% of the Moon is Illuminated
Aug 21
Waxing Crescent
Aug 24
First Quarter
Aug 31
Full
Sep 8
Last Quarter
Sep 15
New

Hourly Weather History & Observations

Time (EDT) Temp. Dew Point Humidity Pressure Visibility Wind Dir Wind Speed Gust Speed Precip Events Conditions
12:52 AM 64.9 °F 59.0 °F 81% 29.91 in 10.0 mi NNW 3.5 mph - N/A   Clear
1:52 AM 66.9 °F 59.0 °F 76% 29.92 in 10.0 mi North 3.5 mph - N/A   Mostly Cloudy
2:52 AM 68.0 °F 59.0 °F 73% 29.91 in 10.0 mi Calm Calm - N/A   Partly Cloudy
3:52 AM 66.9 °F 59.0 °F 76% 29.93 in 10.0 mi South 3.5 mph - N/A   Mostly Cloudy
4:52 AM 68.0 °F 59.0 °F 73% 29.94 in 10.0 mi NW 3.5 mph - N/A   Overcast
5:52 AM 66.9 °F 59.0 °F 76% 29.95 in 10.0 mi North 4.6 mph - N/A   Overcast
6:52 AM 66.0 °F 60.1 °F 81% 29.96 in 10.0 mi NW 3.5 mph - N/A   Mostly Cloudy
7:52 AM 68.0 °F 60.1 °F 76% 29.97 in 10.0 mi NNW 4.6 mph - N/A   Clear
8:52 AM 73.0 °F 59.0 °F 61% 29.98 in 10.0 mi WNW 6.9 mph - N/A   Clear
9:52 AM 75.9 °F 57.0 °F 52% 29.99 in 10.0 mi WNW 8.1 mph - N/A   Clear
10:52 AM 78.1 °F 55.0 °F 45% 30.00 in 10.0 mi NW 9.2 mph - N/A   Clear
11:52 AM 79.0 °F 51.1 °F 38% 30.00 in 10.0 mi WNW 6.9 mph - N/A   Clear
12:52 PM 79.0 °F 52.0 °F 39% 30.00 in 10.0 mi WNW 10.4 mph 16.1 mph N/A   Clear
1:52 PM 80.1 °F 52.0 °F 38% 30.01 in 10.0 mi Variable 6.9 mph - N/A   Clear
2:52 PM 81.0 °F 51.1 °F 35% 30.00 in 10.0 mi West 10.4 mph - N/A   Clear
3:52 PM 80.1 °F 52.0 °F 38% 30.00 in 10.0 mi Variable 6.9 mph - N/A   Partly Cloudy
4:52 PM 81.0 °F 51.1 °F 35% 30.01 in 10.0 mi West 6.9 mph - N/A   Partly Cloudy
5:52 PM 80.1 °F 50.0 °F 35% 30.02 in 10.0 mi West 5.8 mph - N/A   Clear
6:52 PM 77.0 °F 52.0 °F 42% 30.02 in 10.0 mi WSW 4.6 mph - N/A   Partly Cloudy
7:52 PM 73.0 °F 55.9 °F 55% 30.04 in 10.0 mi Calm Calm - N/A   Clear
8:52 PM 68.0 °F 57.0 °F 68% 30.07 in 10.0 mi NW 5.8 mph - N/A   Clear
9:52 PM 64.9 °F 57.0 °F 75% 30.09 in 10.0 mi WNW 3.5 mph - N/A   Clear
10:52 PM 66.0 °F 55.9 °F 70% 30.10 in 10.0 mi Calm Calm - N/A   Clear
11:52 PM 63.0 °F 55.0 °F 75% 30.10 in 10.0 mi Calm Calm - N/A   Clear